Weather in Ciudad del Este

Paraguay     25°29′29″S   54°42′00″W
temp.,
°C
wind,
m/s
gust,
m/s
humid.,
%
clouds,
%
prec.,
mm/h
press.,
hPa
HPBL,
m
28 june, tue
tue2823:00+16e22915 0.0 101629
02:00+15ne27920 0.0 1015174
05:00+14ne24955 0.0 1015100
08:00+18n311805 0.0 1017400
11:00+24n37610 0.0 1017756
14:00+26nnw37556 0.0 10141595
17:00+21wsw497713 0.3 1015418
20:00+17sw3989100 0.3 1017438
29 june, wed
wed2923:00+16sw3886100 0.0 1018697
02:00+14ssw3682100 0.1 1019835
05:00+13ssw257365 0.0 1019693
08:00+13sse23740 0.0 1020550
11:00+18se12550 0.0 1020880
14:00+20ene11460 0.0 1017899
17:00+14n11710 0.0 101616
20:00+12e11740 0.0 101711
30 june, thu
thu3023:00+11e22860 0.0 101753
02:00+10e22920 0.0 101738
05:00+10e11910 0.0 101715
08:00+14ene12760 0.0 1018139
11:00+21ne12590 0.0 1019540
14:00+23ne12580 0.0 1016765
17:00+17ene22780 0.0 101536
20:00+16ene22820 0.0 101618
1 july, fri
fri123:00+15ese22951 0.0 101644
02:00+14e24961 0.0 101586
05:00+14ene23961 0.0 101470
08:00+17ne28820 0.0 1015253
11:00+23nne510580 0.0 1014677
14:00+25ne510560 0.0 1010983
17:00+21nne413680 0.0 1009722
20:00+19ene312770 0.0 1010399
2 july, sat
sat223:00+20ne415670 0.0 1010582
02:00+19nne417660 0.0 1010560
05:00+18nne416680 0.0 1010479
08:00+19nne4146598 0.0 1012493
11:00+25nne410485 0.0 1012615
14:00+28nne410464 0.0 10091138
17:00+22ne3106495 0.0 1010240
20:00+22ne31363100 0.0 1011380